| time (UTC) | temp F | wind direction | speed knots | gust knots | rain 1hr in | rain 24hr in | rain mn in | humidity % | barometer mb |
| 20260508042154 | 50 | 244 | 0.0 | 1.7 | 0.00 | 0.00 | 0.00 | 79 | 1016.8 |
| 20260508034149 | 50 | 137 | 0.0 | 1.7 | 0.00 | 0.00 | 0.00 | 79 | 1016.5 |
| 20260508033145 | 51 | 129 | 0.9 | 2.6 | 0.00 | 0.00 | 0.00 | 79 | 1016.6 |
| 20260508032145 | 50 | 117 | 0.0 | 1.7 | 0.00 | 0.00 | 0.00 | 79 | 1016.5 |
| 20260508030142 | 51 | 110 | 0.0 | 0.9 | 0.00 | 0.00 | 0.00 | 78 | 1016.5 |
| 20260508025142 | 51 | 104 | 0.0 | 2.6 | 0.00 | 0.00 | 0.00 | 78 | 1016.4 |
| 20260508024143 | 51 | 111 | 0.0 | 1.7 | 0.00 | 0.00 | 0.00 | 78 | 1016.5 |
| 20260508023142 | 51 | 139 | 0.9 | 2.6 | 0.00 | 0.00 | 0.00 | 78 | 1016.6 |
| 20260508022143 | 51 | 108 | 0.9 | 1.7 | 0.00 | 0.00 | 0.00 | 77 | 1016.5 |
| 20260508015141 | 51 | 145 | 0.9 | 3.5 | 0.00 | 0.00 | 0.00 | 76 | 1016.6 |
| 20260508014140 | 51 | 208 | 0.9 | 3.5 | 0.00 | 0.00 | 0.00 | 77 | 1016.6 |
| 20260508013140 | 51 | 147 | 0.9 | 1.7 | 0.00 | 0.00 | 0.00 | 78 | 1016.5 |
| 20260508011140 | 51 | 238 | 0.0 | 0.9 | 0.00 | 0.00 | 0.00 | 78 | 1016.6 |
| 20260508005141 | 51 | 149 | 0.0 | 1.7 | 0.00 | 0.00 | 0.00 | 77 | 1016.5 |
| 20260508004140 | 51 | 240 | 0.0 | 0.9 | 0.00 | 0.00 | 0.00 | 79 | 1016.4 |
| 20260508003138 | 51 | 240 | 0.0 | 0.0 | 0.00 | 0.00 | 0.00 | 79 | 1016.5 |
| 20260508002138 | 51 | 240 | 0.0 | 0.0 | 0.00 | 0.00 | 0.00 | 79 | 1016.6 |
| 20260508001137 | 52 | 240 | 0.0 | 0.0 | 0.00 | 0.00 | 0.00 | 79 | 1016.7 |
| 20260508000137 | 52 | 240 | 0.0 | 0.9 | 0.00 | 0.00 | 0.00 | 79 | 1016.7 |
| 20260507235136 | 52 | 243 | 0.0 | 0.0 | 0.00 | 0.00 | 0.00 | 79 | 1016.8 |
| 20260507233135 | 53 | 243 | 0.0 | 0.9 | 0.00 | 0.00 | 0.00 | 77 | 1016.7 |
| 20260507232141 | 53 | 241 | 0.0 | 0.9 | 0.00 | 0.00 | 0.00 | 77 | 1016.7 |
| 20260507231137 | 53 | 240 | 0.0 | 0.9 | 0.00 | 0.00 | 0.00 | 78 | 1016.6 |
| 20260507230134 | 53 | 98 | 0.0 | 0.9 | 0.00 | 0.00 | 0.00 | 77 | 1016.7 |
| 20260507225135 | 53 | 86 | 0.0 | 1.7 | 0.00 | 0.00 | 0.00 | 77 | 1016.6 |
| 20260507224133 | 53 | 119 | 0.0 | 0.9 | 0.00 | 0.00 | 0.00 | 77 | 1016.6 |
| 20260507223137 | 53 | 98 | 0.0 | 1.7 | 0.00 | 0.00 | 0.00 | 77 | 1016.6 |
| 20260507221133 | 53 | 98 | 0.0 | 0.9 | 0.00 | 0.00 | 0.00 | 79 | 1016.7 |
| 20260507220134 | 53 | 129 | 0.0 | 0.9 | 0.00 | 0.00 | 0.00 | 80 | 1016.7 |
| 20260507215134 | 53 | 129 | 0.0 | 0.0 | 0.00 | 0.00 | 0.00 | 80 | 1016.6 |
| 20260507213135 | 53 | 129 | 0.0 | 0.0 | 0.00 | 0.00 | 0.00 | 79 | 1016.6 |
| 20260507212133 | 53 | 129 | 0.0 | 0.0 | 0.00 | 0.00 | 0.00 | 79 | 1016.6 |
| 20260507211134 | 53 | 129 | 0.0 | 0.0 | 0.00 | 0.00 | 0.00 | 78 | 1016.5 |
| 20260507210135 | 53 | 129 | 0.0 | 0.9 | 0.00 | 0.00 | 0.00 | 78 | 1016.5 |
| 20260507205133 | 53 | 154 | 0.0 | 0.9 | 0.00 | 0.00 | 0.00 | 78 | 1016.4 |
| 20260507204134 | 54 | 145 | 0.0 | 1.7 | 0.00 | 0.00 | 0.00 | 77 | 1016.3 |
| 20260507200135 | 55 | 210 | 0.0 | 2.6 | 0.00 | 0.00 | 0.00 | 72 | 1015.9 |
| 20260507195133 | 55 | 165 | 0.9 | 3.5 | 0.00 | 0.00 | 0.00 | 71 | 1015.7 |
| 20260507193134 | 56 | 146 | 0.9 | 2.6 | 0.00 | 0.00 | 0.00 | 71 | 1015.4 |
| 20260507192134 | 56 | 281 | 0.9 | 4.3 | 0.00 | 0.00 | 0.00 | 71 | 1015.3 |
| 20260507183137 | 56 | 159 | 1.7 | 4.3 | 0.00 | 0.00 | 0.00 | 69 | 1015.3 |
| 20260507182137 | 57 | 193 | 1.7 | 5.2 | 0.00 | 0.00 | 0.00 | 69 | 1015.3 |
| 20260507181134 | 57 | 247 | 1.7 | 4.3 | 0.00 | 0.00 | 0.00 | 68 | 1015.3 |
| 20260507180135 | 57 | 247 | 1.7 | 4.3 | 0.00 | 0.00 | 0.00 | 66 | 1015.2 |
| 20260507175134 | 57 | 247 | 2.6 | 5.2 | 0.00 | 0.00 | 0.00 | 65 | 1015.1 |
| 20260507174134 | 58 | 214 | 2.6 | 5.2 | 0.00 | 0.00 | 0.00 | 63 | 1015.1 |
| 20260507173136 | 58 | 266 | 2.6 | 5.2 | 0.00 | 0.00 | 0.00 | 61 | 1015.1 |
| 20260507170134 | 59 | 212 | 1.7 | 3.5 | 0.00 | 0.00 | 0.00 | 57 | 1015.2 |
| 20260507165134 | 59 | 181 | 1.7 | 4.3 | 0.00 | 0.00 | 0.00 | 56 | 1015.2 |
| 20260507163134 | 60 | 210 | 0.9 | 3.5 | 0.00 | 0.00 | 0.00 | 53 | 1015.2 |
| 20260507162133 | 60 | 139 | 0.9 | 3.5 | 0.00 | 0.00 | 0.00 | 53 | 1015.2 |
| 20260507160133 | 60 | 221 | 1.7 | 3.5 | 0.00 | 0.00 | 0.00 | 51 | 1015.2 |
| 20260507155133 | 60 | 272 | 2.6 | 6.1 | 0.00 | 0.00 | 0.00 | 50 | 1015.3 |
| 20260507145132 | 61 | 143 | 1.7 | 5.2 | 0.00 | 0.00 | 0.00 | 48 | 1015.6 |
| 20260507144130 | 61 | 226 | 2.6 | 6.1 | 0.00 | 0.00 | 0.00 | 47 | 1015.7 |
| 20260507143130 | 62 | 207 | 2.6 | 4.3 | 0.00 | 0.00 | 0.00 | 46 | 1015.7 |
| 20260507142127 | 62 | 191 | 1.7 | 5.2 | 0.00 | 0.00 | 0.00 | 45 | 1015.8 |
| 20260507141129 | 62 | 125 | 0.9 | 2.6 | 0.00 | 0.00 | 0.00 | 45 | 1015.8 |
| 20260507140128 | 62 | 62 | 1.7 | 5.2 | 0.00 | 0.00 | 0.00 | 44 | 1015.9 |
| 20260507134128 | 64 | 209 | 2.6 | 7.8 | 0.00 | 0.00 | 0.00 | 43 | 1016.0 |
| 20260507133128 | 64 | 215 | 1.7 | 5.2 | 0.00 | 0.00 | 0.00 | 44 | 1015.9 |
| 20260507132127 | 63 | 53 | 1.7 | 6.1 | 0.00 | 0.00 | 0.00 | 43 | 1015.9 |
| 20260507131127 | 62 | 165 | 1.7 | 5.2 | 0.00 | 0.00 | 0.00 | 45 | 1016.1 |
| 20260507130128 | 62 | 141 | 1.7 | 6.1 | 0.00 | 0.00 | 0.00 | 45 | 1016.2 |
| 20260507124128 | 63 | 154 | 2.6 | 7.0 | 0.00 | 0.00 | 0.00 | 44 | 1016.2 |
| 20260507123128 | 64 | 84 | 1.7 | 6.1 | 0.00 | 0.00 | 0.00 | 45 | 1016.2 |
| 20260507122128 | 64 | 48 | 0.9 | 4.3 | 0.00 | 0.00 | 0.00 | 44 | 1016.2 |
| 20260507121129 | 63 | 123 | 2.6 | 7.0 | 0.00 | 0.00 | 0.00 | 46 | 1016.4 |
| 20260507120126 | 62 | 234 | 1.7 | 6.1 | 0.00 | 0.00 | 0.00 | 47 | 1016.5 |
| 20260507115126 | 62 | 121 | 0.9 | 3.5 | 0.00 | 0.00 | 0.00 | 52 | 1016.6 |
| 20260507113126 | 61 | 105 | 0.9 | 5.2 | 0.00 | 0.00 | 0.00 | 58 | 1016.5 |
| 20260507112127 | 60 | 34 | 1.7 | 5.2 | 0.00 | 0.00 | 0.00 | 59 | 1016.5 |
| 20260507111125 | 59 | 12 | 0.9 | 2.6 | 0.00 | 0.00 | 0.00 | 57 | 1016.6 |
| 20260507110126 | 58 | 105 | 0.9 | 3.5 | 0.00 | 0.00 | 0.00 | 60 | 1017.0 |
| 20260507104124 | 56 | 229 | 1.7 | 6.1 | 0.00 | 0.00 | 0.00 | 68 | 1017.2 |
| 20260507103122 | 55 | 139 | 1.7 | 5.2 | 0.00 | 0.00 | 0.00 | 69 | 1017.2 |
| 20260507102122 | 55 | 245 | 1.7 | 5.2 | 0.00 | 0.00 | 0.00 | 70 | 1017.3 |
| 20260507101121 | 55 | 178 | 1.7 | 5.2 | 0.00 | 0.00 | 0.00 | 70 | 1017.2 |
| 20260507100120 | 54 | 158 | 0.9 | 4.3 | 0.00 | 0.00 | 0.00 | 71 | 1017.3 |
| 20260507095121 | 54 | 174 | 0.9 | 2.6 | 0.00 | 0.00 | 0.00 | 72 | 1017.2 |
| 20260507094115 | 53 | 166 | 0.9 | 2.6 | 0.00 | 0.00 | 0.00 | 74 | 1017.2 |
| 20260507093116 | 53 | 119 | 0.9 | 2.6 | 0.00 | 0.00 | 0.00 | 74 | 1017.2 |
| 20260507091115 | 51 | 108 | 0.9 | 2.6 | 0.00 | 0.00 | 0.00 | 77 | 1017.3 |
| 20260507090115 | 51 | 55 | 0.9 | 3.5 | 0.00 | 0.00 | 0.00 | 77 | 1017.2 |
| 20260507085114 | 50 | 55 | 0.9 | 3.5 | 0.00 | 0.00 | 0.00 | 78 | 1017.2 |
| 20260507083113 | 50 | 108 | 0.0 | 1.7 | 0.00 | 0.00 | 0.00 | 80 | 1017.2 |
| 20260507082111 | 49 | 172 | 0.0 | 1.7 | 0.00 | 0.00 | 0.00 | 81 | 1017.2 |
| 20260507081111 | 49 | 160 | 0.0 | 1.7 | 0.00 | 0.00 | 0.00 | 82 | 1017.2 |
| 20260507080109 | 48 | 127 | 0.9 | 4.3 | 0.00 | 0.00 | 0.00 | 84 | 1017.3 |
| 20260507075109 | 48 | 53 | 0.9 | 2.6 | 0.00 | 0.00 | 0.00 | 84 | 1017.2 |
| 20260507074111 | 47 | 58 | 0.9 | 3.5 | 0.00 | 0.00 | 0.00 | 85 | 1017.1 |
| 20260507073109 | 47 | 16 | 0.9 | 3.5 | 0.00 | 0.00 | 0.00 | 85 | 1017.2 |
| 20260507071111 | 46 | 55 | 0.9 | 3.5 | 0.00 | 0.00 | 0.00 | 87 | 1017.1 |
| 20260507070109 | 46 | 38 | 0.9 | 2.6 | 0.00 | 0.00 | 0.00 | 87 | 1017.0 |
| 20260507065110 | 45 | 41 | 0.0 | 2.6 | 0.00 | 0.00 | 0.00 | 88 | 1017.0 |
| 20260507064109 | 44 | 13 | 0.9 | 4.3 | 0.00 | 0.00 | 0.00 | 88 | 1017.0 |
| 20260507063109 | 44 | 56 | 0.9 | 3.5 | 0.00 | 0.00 | 0.00 | 88 | 1016.9 |
| 20260507062111 | 43 | 45 | 0.9 | 3.5 | 0.00 | 0.00 | 0.00 | 88 | 1017.0 |
| 20260507061109 | 43 | 8 | 0.9 | 1.7 | 0.00 | 0.00 | 0.00 | 89 | 1017.0 |
| 20260507055109 | 42 | 47 | 0.9 | 2.6 | 0.00 | 0.00 | 0.00 | 89 | 1016.9 |
| 20260507054109 | 42 | 31 | 0.9 | 2.6 | 0.00 | 0.00 | 0.00 | 89 | 1016.8 |
| 20260507052104 | 41 | 24 | 0.0 | 2.6 | 0.00 | 0.00 | 0.00 | 90 | 1016.7 |
| 20260507051103 | 40 | 37 | 0.0 | 1.7 | 0.00 | 0.00 | 0.00 | 90 | 1016.7 |
| 20260507045059 | 40 | 5 | 0.0 | 0.9 | 0.00 | 0.00 | 0.00 | 90 | 1016.8 |